TimeCEST,TemperatureF,Dew PointF,Humidity,Sea Level PressureIn,VisibilityMPH,Wind Direction,Wind SpeedMPH,Gust SpeedMPH,PrecipitationIn,Events,Conditions,WindDirDegrees,DateUTC
12:00 AM,50.0,50.0,100,30.27,0.6,NE,1.2,-,N/A,Fog,Fog,50,2012-10-22 22:00:00
12:32 AM,50.0,50.0,100,30.27,0.3,NE,1.2,-,N/A,Fog,Fog,50,2012-10-22 22:32:00
1:00 AM,50.0,50.0,100,30.27,0.2,ENE,2.3,-,N/A,Fog,Fog,70,2012-10-22 23:00:00
2:00 AM,50.0,48.2,94,30.27,0.2,ENE,1.2,-,N/A,Fog,Fog,60,2012-10-23 00:00:00
3:00 AM,50.0,50.0,100,30.27,0.2,Calm,Calm,-,N/A,Fog,Fog,0,2012-10-23 01:00:00
4:23 AM,48.2,48.2,100,30.27,0.4,Variable,1.2,-,N/A,Fog,Fog,0,2012-10-23 02:23:00
5:00 AM,48.2,48.2,100,30.27,0.4,North,1.2,-,N/A,Fog,Fog,10,2012-10-23 03:00:00
6:00 AM,48.2,48.2,100,30.27,0.4,North,2.3,-,N/A,Fog,Fog,360,2012-10-23 04:00:00
7:00 AM,48.2,48.2,100,30.27,0.2,North,3.5,-,N/A,Fog,Fog,360,2012-10-23 05:00:00
8:00 AM,48.2,48.2,100,30.27,0.2,Variable,2.3,-,N/A,Fog,Fog,0,2012-10-23 06:00:00
9:00 AM,48.2,48.2,100,30.30,0.3,NE,2.3,-,N/A,Fog,Fog,40,2012-10-23 07:00:00
10:00 AM,48.2,48.2,100,30.30,0.3,North,2.3,-,N/A,Fog,Fog,350,2012-10-23 08:00:00
12:00 PM,48.2,48.2,100,30.30,0.3,Variable,2.3,-,N/A,Fog,Fog,0,2012-10-23 10:00:00
12:19 PM,48.2,48.2,100,30.30,0.6,North,2.3,-,N/A,,Overcast,360,2012-10-23 10:19:00
1:00 PM,48.2,48.2,100,30.30,0.6,Variable,2.3,-,N/A,,Overcast,0,2012-10-23 11:00:00
2:00 PM,48.2,48.2,100,30.30,0.9,Variable,2.3,-,N/A,,Overcast,0,2012-10-23 12:00:00
3:00 PM,48.2,46.4,93,30.27,0.9,Variable,2.3,-,N/A,,Overcast,0,2012-10-23 13:00:00
4:00 PM,48.2,46.4,93,30.27,1.2,Variable,2.3,-,N/A,,Overcast,0,2012-10-23 14:00:00
5:00 PM,48.2,46.4,93,30.27,1.2,Calm,Calm,-,N/A,,Overcast,0,2012-10-23 15:00:00
6:00 PM,48.2,46.4,93,30.27,1.2,Calm,Calm,-,N/A,,Overcast,0,2012-10-23 16:00:00
7:00 PM,48.2,46.4,93,30.27,1.2,Variable,2.3,-,N/A,,Overcast,0,2012-10-23 17:00:00
8:00 PM,48.2,46.4,93,30.27,1.2,Calm,Calm,-,N/A,,Overcast,0,2012-10-23 18:00:00
9:00 PM,48.2,46.4,93,30.27,1.2,NW,3.5,-,N/A,,Overcast,320,2012-10-23 19:00:00
10:00 PM,48.2,48.2,100,30.27,1.2,WNW,2.3,-,N/A,,Overcast,300,2012-10-23 20:00:00
11:00 PM,48.2,46.4,93,30.24,0.9,Variable,1.2,-,N/A,,Overcast,0,2012-10-23 21:00:00